Date,TemperatureHighF,TemperatureAvgF,TemperatureLowF,DewpointHighF,DewpointAvgF,DewpointLowF,HumidityHigh,HumidityAvg,HumidityLow,PressureMaxIn,PressureMinIn,WindSpeedMaxMPH,WindSpeedAvgMPH,GustSpeedMaxMPH,PrecipitationSumIn
2012-1-1,62.5,53.1,43.6,44.0,41.1,38.0,83,65,47,30.21,30.11,9,2,17,0.00
2012-1-2,56.4,52.1,44.4,53.0,50.0,40.0,98,92,83,30.34,30.17,12,2,16,0.00
2012-1-3,58.7,48.3,39.0,51.0,46.7,39.0,99,94,74,30.38,30.29,9,2,9,0.00
2012-1-4,61.8,47.6,38.7,53.0,45.1,38.0,100,92,69,30.43,30.29,6,1,7,0.01
2012-1-5,57.8,47.0,39.4,53.0,45.5,39.0,100,94,82,30.35,30.18,11,2,18,0.01
2012-1-6,54.5,43.1,35.7,49.0,42.0,35.0,100,96,79,30.24,30.14,6,2,11,0.01
2012-1-7,65.4,45.0,32.5,49.0,38.3,26.0,100,81,29,30.30,30.16,9,2,15,0.01
2012-1-8,60.9,43.7,32.3,44.0,34.4,29.0,88,72,43,30.27,30.18,6,2,8,0.00
2012-1-9,59.5,40.2,30.1,47.0,35.3,28.0,97,84,56,30.29,30.17,11,2,12,0.00
2012-1-10,62.9,42.9,31.2,47.0,38.0,31.0,100,85,42,30.21,30.10,11,2,13,0.00
2012-1-11,60.8,42.9,30.3,50.0,39.8,30.0,99,90,55,30.18,30.05,10,2,10,0.01
2012-1-12,59.7,41.8,30.3,49.0,38.1,30.0,100,88,62,30.16,30.05,6,2,7,0.01
2012-1-13,66.3,45.3,31.2,42.0,34.3,30.0,99,72,30,30.24,30.15,8,1,15,0.01
2012-1-14,61.7,42.8,30.6,48.0,38.3,30.0,99,86,46,30.23,30.12,8,2,12,0.00
2012-1-15,51.6,46.8,39.9,46.0,40.2,32.0,99,78,63,30.22,30.05,17,5,29,0.00
2012-1-16,49.9,42.2,31.7,37.0,31.9,26.0,86,68,50,30.37,30.21,9,3,16,0.00
2012-1-17,50.2,36.0,25.3,39.0,31.7,24.0,96,85,61,30.47,30.36,7,2,9,0.00
2012-1-18,52.5,42.8,30.2,45.0,39.3,29.0,98,88,74,30.43,30.29,10,2,11,0.00
2012-1-19,51.6,50.4,47.0,51.0,49.3,46.0,98,96,92,30.22,30.02,14,6,22,0.42
2012-1-20,56.6,53.8,51.6,56.0,53.2,51.0,99,98,97,30.03,29.71,26,8,39,2.24
2012-1-21,53.1,48.6,40.6,53.0,45.4,39.0,98,89,74,30.18,29.73,21,6,27,0.06
2012-1-22,52.6,48.1,40.9,52.0,46.8,40.0,99,95,90,30.20,29.78,21,6,30,0.88
2012-1-23,55.8,51.9,44.7,55.0,50.1,43.0,99,93,86,30.18,29.64,28,7,33,0.12
2012-1-24,53.4,47.4,41.5,50.0,45.9,41.0,99,94,83,30.45,30.18,5,1,8,0.12
2012-1-25,60.2,53.2,49.3,56.0,51.7,48.0,100,95,85,30.46,30.35,7,2,11,0.01
2012-1-26,53.8,52.3,48.0,54.0,52.3,48.0,100,100,99,30.37,30.26,5,1,8,0.03
2012-1-27,57.0,45.2,34.7,51.0,43.9,34.0,100,95,79,30.31,30.23,4,1,7,0.01
2012-1-28,60.5,42.0,30.0,46.0,36.4,30.0,99,83,50,30.38,30.27,6,2,10,0.01
2012-1-29,62.1,48.2,35.0,52.0,43.7,34.0,99,85,61,30.31,30.15,9,2,11,0.01
2012-1-30,53.5,48.7,41.1,51.0,47.5,41.0,99,95,88,30.17,30.03,9,2,13,0.00
2012-1-31,52.5,48.2,43.1,49.0,46.1,42.0,98,92,84,30.22,30.10,10,3,13,0.00
2012-2-1,54.9,49.4,40.1,53.0,48.1,40.0,99,95,86,30.31,30.20,8,2,11,0.02
2012-2-2,59.1,45.4,35.5,52.0,43.4,35.0,100,93,72,30.27,29.98,5,1,7,0.01
2012-2-3,62.6,46.6,36.4,50.0,41.6,34.0,100,86,35,30.08,30.00,8,2,10,0.01
2012-2-4,64.5,47.9,35.5,48.0,39.0,35.0,99,75,42,30.12,30.06,11,1,16,0.01
2012-2-5,65.6,48.9,34.6,47.0,37.4,34.0,99,70,33,30.14,30.00,10,2,12,0.00
2012-2-6,62.2,54.5,48.9,48.0,41.4,37.0,87,62,43,29.99,29.77,10,2,24,0.14
2012-2-7,53.4,51.2,45.0,51.0,49.1,44.0,97,92,86,30.13,29.76,7,2,16,0.18
2012-2-8,62.0,47.2,38.0,54.0,45.2,38.0,100,93,63,30.27,30.12,6,1,9,0.19
2012-2-9,65.5,48.0,37.9,54.0,45.3,37.0,100,91,63,30.30,30.15,8,1,9,0.01
2012-2-10,58.2,50.5,39.5,56.0,49.6,39.0,100,96,90,30.21,30.10,12,4,15,0.11
2012-2-11,56.1,51.3,44.8,53.0,49.5,43.0,99,94,85,30.12,30.03,11,4,15,0.12
2012-2-12,53.4,46.5,38.2,50.0,44.8,38.0,100,94,81,30.11,29.97,19,3,23,0.24
2012-2-13,53.8,49.1,42.4,48.0,45.2,40.0,96,86,78,30.04,29.94,16,7,26,0.04
2012-2-14,53.8,45.7,34.3,50.0,42.4,34.0,99,89,73,30.15,30.03,15,3,21,0.06
2012-2-15,56.1,45.5,34.3,46.0,39.1,32.0,96,79,49,30.22,30.09,12,5,20,0.06
2012-2-16,59.6,42.7,31.3,49.0,39.1,30.0,99,89,42,30.32,30.21,6,2,11,0.01
2012-2-17,54.2,46.8,38.3,52.0,46.0,38.0,99,97,91,30.30,30.20,9,2,14,0.01
2012-2-18,54.6,49.6,43.0,50.0,45.1,36.0,99,84,70,30.24,30.15,12,5,23,0.00
2012-2-19,52.1,46.1,40.4,44.0,39.8,35.0,92,79,61,30.19,30.09,10,3,15,0.00
2012-2-20,55.6,49.6,45.6,51.0,47.6,44.0,98,93,83,30.25,30.11,8,2,10,0.02
2012-2-21,58.1,48.9,40.3,54.0,47.5,40.0,99,95,83,30.34,30.23,6,1,11,0.00
2012-2-22,59.7,49.0,39.3,55.0,47.4,39.0,100,94,76,30.32,30.14,17,5,25,0.01
2012-2-23,58.6,48.6,40.3,50.0,45.0,40.0,99,88,67,30.13,30.00,11,3,16,0.01
2012-2-24,64.4,49.1,37.0,51.0,44.4,37.0,99,85,60,30.24,30.02,13,3,25,0.01
2012-2-25,54.0,47.8,35.3,46.0,40.6,32.0,89,77,55,30.40,30.23,14,7,22,0.00
2012-2-26,50.0,40.1,28.6,42.0,35.1,28.0,97,83,58,30.24,29.89,13,3,19,0.00
2012-2-27,51.0,41.5,28.9,41.0,36.1,28.0,97,82,66,30.00,29.85,13,4,21,0.01
2012-2-28,51.3,46.7,35.5,49.0,40.8,33.0,96,80,62,30.25,30.01,27,8,36,0.02
2012-2-29,51.0,47.7,39.2,50.0,45.3,39.0,98,91,78,30.27,30.06,24,8,34,0.25
2012-3-1,53.0,46.2,37.8,49.0,43.8,37.0,99,91,76,30.29,30.22,16,6,22,0.03
2012-3-2,58.4,42.8,30.7,46.0,37.7,30.0,99,84,44,30.40,30.29,9,2,13,0.01
2012-3-3,65.1,44.5,32.8,48.0,38.4,31.0,97,81,45,30.38,30.27,9,2,13,0.01
2012-3-4,71.4,48.8,35.9,52.0,42.9,35.0,99,83,34,30.26,30.10,8,2,13,0.00
2012-3-5,50.5,45.3,37.8,49.0,44.4,38.0,100,96,90,30.14,30.06,12,3,15,0.00
2012-3-6,51.8,45.8,33.9,49.0,39.0,31.0,99,78,59,30.12,30.00,20,6,33,0.01
2012-3-7,55.6,43.4,32.1,41.0,32.1,22.0,90,67,29,30.23,30.12,10,3,14,0.00
2012-3-8,59.9,45.7,30.5,49.0,39.8,30.0,98,82,49,30.36,30.22,6,2,7,0.00
2012-3-9,62.3,45.0,31.0,50.0,40.3,30.0,97,85,58,30.36,30.18,8,2,11,0.00
2012-3-10,52.5,47.7,38.9,49.0,45.7,38.0,100,93,87,30.18,30.04,10,4,14,0.00
2012-3-11,55.0,48.7,37.7,50.0,45.4,37.0,97,89,70,30.10,30.04,12,4,17,0.05
2012-3-12,56.1,45.9,33.5,50.0,42.5,33.0,100,89,68,30.08,29.92,16,5,30,0.03
2012-3-13,53.1,52.0,51.5,52.0,51.1,51.0,98,97,91,29.97,29.85,27,12,32,1.84
2012-3-14,55.7,53.3,51.9,56.0,53.0,51.0,100,99,96,30.12,29.96,18,6,26,0.69
2012-3-15,57.8,54.6,52.9,57.0,53.8,53.0,100,97,92,30.15,30.05,11,5,17,0.01
2012-3-16,54.6,52.7,48.9,54.0,52.1,46.0,100,98,88,30.06,29.75,20,9,29,0.72
2012-3-17,52.2,45.9,37.8,46.0,41.9,37.0,100,86,66,29.75,29.58,13,5,25,0.01
2012-3-18,50.3,46.5,42.1,42.0,38.6,33.0,88,75,57,29.99,29.69,20,6,25,0.02
2012-3-19,51.2,44.4,35.5,41.0,36.3,32.0,90,74,50,30.11,29.98,10,3,13,0.00
2012-3-20,57.5,50.6,45.6,51.0,46.0,40.0,94,84,72,30.22,30.11,9,2,11,0.00
2012-3-21,60.4,53.1,46.5,56.0,51.5,46.0,99,94,84,30.20,30.01,9,2,11,0.00
2012-3-22,53.0,50.0,45.8,53.0,45.2,41.0,98,84,70,30.04,29.97,17,5,21,0.00
2012-3-23,56.3,47.1,35.3,46.0,40.7,34.0,98,80,52,30.11,29.87,16,4,20,0.00
2012-3-24,51.5,45.6,42.1,46.0,43.2,41.0,97,91,68,29.94,29.83,16,2,25,1.07
2012-3-25,55.3,47.2,42.5,47.0,43.6,41.0,97,88,63,29.93,29.81,11,3,13,1.19
2012-3-26,54.8,47.6,36.0,47.0,43.3,35.0,98,85,72,30.10,29.93,17,6,25,0.00
2012-3-27,54.1,52.1,49.8,53.0,50.2,47.0,98,93,84,30.01,29.86,20,11,37,0.46
2012-3-28,60.6,54.7,46.9,53.0,50.4,45.0,97,86,57,30.12,29.94,20,7,23,0.46
2012-3-29,57.2,52.0,45.0,53.0,50.4,44.0,99,94,84,30.14,30.07,11,4,16,0.01
2012-3-30,58.9,55.0,53.4,56.0,54.0,53.0,99,96,89,30.11,29.89,16,6,21,0.01
2012-3-31,57.1,52.8,47.6,55.0,49.4,45.0,98,88,71,30.07,29.71,29,13,50,0.42
2012-4-1,54.6,49.9,41.2,45.0,42.7,38.0,93,77,66,30.34,30.07,16,6,25,0.42
2012-4-2,57.9,47.8,38.0,49.0,44.2,37.0,98,88,64,30.31,30.09,7,2,17,0.00
2012-4-3,60.6,51.5,44.9,52.0,48.7,44.0,98,90,70,30.13,30.03,13,4,22,0.08
2012-4-4,53.6,48.2,39.3,46.0,42.2,37.0,96,80,65,30.25,30.13,14,4,20,0.08
2012-4-5,51.7,46.2,36.9,42.0,39.0,35.0,94,76,64,30.22,30.14,16,6,26,0.00
2012-4-6,54.3,44.9,33.4,43.0,38.1,32.0,96,79,55,30.31,30.19,10,3,13,0.00
2012-4-7,61.0,44.8,31.9,45.0,38.6,31.0,98,81,50,30.20,30.05,10,2,14,0.00
2012-4-8,56.4,45.4,33.3,50.0,42.1,33.0,99,88,61,30.11,30.02,9,3,12,0.01
2012-4-9,64.2,51.9,42.1,53.0,47.5,41.0,98,86,46,30.05,29.83,15,3,28,0.01
2012-4-10,54.4,52.8,50.9,53.0,51.3,49.0,97,94,85,29.90,29.82,14,4,20,0.32
2012-4-11,56.1,53.1,50.1,51.0,50.3,49.0,99,90,80,29.96,29.82,25,9,33,0.32
2012-4-12,56.6,52.4,46.1,51.0,47.8,44.0,95,85,64,30.04,29.75,25,9,42,0.42
2012-4-13,54.3,49.9,44.0,48.0,45.6,43.0,99,85,74,29.91,29.73,18,6,22,0.06
2012-4-14,58.1,51.6,44.5,51.0,46.2,40.0,98,82,68,30.15,29.91,13,5,18,0.06
2012-4-15,55.8,51.1,47.6,52.0,49.0,47.0,97,92,85,30.26,30.15,12,4,16,0.00
2012-4-16,55.9,51.9,45.8,52.0,49.8,45.0,98,92,85,30.27,30.20,9,3,12,0.00
2012-4-17,57.6,53.1,47.8,54.0,51.6,47.0,99,95,86,30.21,30.12,10,4,14,0.00
2012-4-18,59.7,53.8,49.3,55.0,50.9,47.0,99,90,73,30.20,30.13,14,4,16,0.00
2012-4-19,62.1,56.2,52.3,58.0,54.9,52.0,99,95,87,30.20,30.11,11,3,13,0.00
2012-4-20,62.0,55.2,49.0,58.0,52.5,48.0,100,91,73,30.10,29.98,8,2,12,0.00
2012-4-21,64.8,53.7,45.8,57.0,51.3,45.0,100,92,76,30.00,29.88,7,2,9,0.00
2012-4-22,64.9,54.9,47.7,60.0,53.5,47.0,100,95,82,29.94,29.88,22,6,24,0.00
2012-4-23,58.4,55.8,54.0,55.0,53.8,52.0,97,93,87,30.01,29.93,16,7,24,0.03
2012-4-24,65.0,58.6,54.2,58.0,55.5,53.0,96,89,74,30.06,29.98,17,5,19,0.03
2012-4-25,63.8,57.7,53.1,59.0,55.6,52.0,98,92,82,30.02,29.78,10,3,15,0.00
2012-4-26,58.5,54.8,51.7,56.0,50.6,47.0,99,86,72,30.23,29.80,18,8,21,0.03
2012-4-27,58.7,52.3,42.2,52.0,47.3,41.0,96,83,68,30.27,30.16,19,5,22,0.03
2012-4-28,58.5,53.7,48.5,54.0,50.2,47.0,95,88,81,30.17,29.92,15,4,23,0.00
2012-4-29,61.3,52.6,45.0,57.0,50.4,44.0,99,92,82,29.95,29.90,11,3,13,0.00
2012-4-30,60.8,53.4,47.8,57.0,50.9,47.0,98,91,77,30.00,29.93,14,4,24,0.00
2012-5-1,55.8,51.3,46.9,50.0,47.4,45.0,96,87,76,29.97,29.89,17,6,27,0.00
2012-5-2,55.7,50.2,41.2,49.0,46.2,40.0,95,86,73,30.01,29.91,18,6,20,0.00
2012-5-3,56.8,52.3,43.5,55.0,51.2,43.0,98,96,93,30.12,29.96,16,6,23,0.07
2012-5-4,56.6,52.0,46.6,50.0,47.9,44.0,98,86,75,30.23,30.12,17,6,23,0.07
2012-5-5,59.4,50.0,39.0,52.0,45.9,38.0,98,86,71,30.25,30.09,11,3,15,0.00
2012-5-6,68.3,51.5,39.6,54.0,47.0,39.0,98,86,58,30.11,30.03,8,2,11,0.01
2012-5-7,63.3,52.1,40.9,57.0,49.3,40.0,99,90,78,30.06,29.98,7,2,11,0.01
2012-5-8,62.0,52.3,43.9,58.0,49.9,43.0,99,92,81,29.99,29.94,11,2,13,0.00
2012-5-9,59.1,52.3,46.6,54.0,49.3,46.0,98,90,79,29.99,29.92,9,3,17,0.00
2012-5-10,63.6,52.0,41.8,55.0,47.7,41.0,98,86,60,29.95,29.87,9,4,12,0.01
2012-5-11,68.4,54.1,41.3,58.0,49.9,41.0,99,87,67,29.98,29.88,7,2,10,0.01
2012-5-12,59.1,51.8,46.7,55.0,50.4,46.0,100,95,86,30.07,29.98,11,4,14,0.00
2012-5-13,58.6,53.6,50.0,54.0,51.1,49.0,96,91,82,30.11,30.06,18,8,21,0.00
2012-5-14,62.2,55.6,49.8,56.0,53.2,49.0,98,91,72,30.11,30.06,12,4,13,0.11
2012-5-15,55.2,50.7,48.3,52.0,49.7,48.0,100,96,87,30.09,30.04,12,5,16,0.11
2012-5-16,53.3,50.6,49.2,52.0,50.0,49.0,100,97,93,30.07,29.96,10,5,14,0.00
2012-5-17,55.3,51.8,48.6,52.0,49.3,47.0,100,91,83,29.97,29.87,17,7,25,0.00
2012-5-18,58.3,51.5,41.9,52.0,47.5,41.0,97,86,73,30.02,29.93,9,4,14,0.00
2012-5-19,59.7,51.2,41.0,53.0,47.0,40.0,100,86,72,30.02,29.95,12,3,13,0.00
2012-5-20,60.3,53.5,43.9,54.0,49.6,42.0,97,87,76,30.03,29.96,14,4,16,0.00
2012-5-21,55.8,52.3,48.8,54.0,51.9,49.0,100,98,95,30.13,30.02,11,3,13,0.00
2012-5-22,59.4,54.1,51.1,55.0,52.0,50.0,100,93,73,30.18,30.09,12,5,28,0.00
2012-5-23,57.4,53.2,49.9,51.0,49.6,48.0,97,87,78,30.08,29.96,17,8,28,0.00
2012-5-24,58.1,53.3,46.4,53.0,49.3,45.0,94,86,77,29.96,29.80,18,7,28,0.00
2012-5-25,57.6,52.5,48.6,52.0,48.5,46.0,95,86,78,29.85,29.77,19,6,25,0.00
2012-5-26,57.3,51.9,43.7,53.0,49.4,43.0,99,91,83,30.09,29.85,18,5,21,0.00
2012-5-27,57.9,53.1,49.4,53.0,50.4,48.0,97,90,81,30.18,30.09,15,5,17,0.00
2012-5-28,58.2,53.5,49.6,54.0,50.5,47.0,99,90,73,30.10,30.03,19,5,22,0.00
2012-5-29,59.1,53.5,48.4,54.0,50.2,47.0,96,89,80,30.08,30.03,8,3,13,0.00
2012-5-30,60.8,53.8,49.1,56.0,50.8,47.0,97,90,80,30.12,30.05,10,4,13,0.00
2012-5-31,65.3,55.1,44.4,58.0,51.6,44.0,98,88,71,30.06,29.86,9,3,11,0.00
2012-6-1,61.7,55.7,50.8,57.0,53.2,50.0,98,91,81,29.88,29.81,9,4,17,0.00
2012-6-2,59.1,53.4,50.9,56.0,52.6,51.0,100,97,88,29.99,29.86,14,5,21,0.00
2012-6-3,60.1,53.8,50.4,55.0,51.9,50.0,100,93,82,29.99,29.93,11,4,16,0.00
2012-6-4,59.3,55.3,50.3,57.0,53.2,48.0,97,92,82,30.13,29.89,19,7,23,0.01
2012-6-5,59.2,52.7,43.6,50.0,47.9,43.0,99,84,70,30.22,30.13,16,5,20,0.01
2012-6-6,57.8,51.7,42.9,51.0,47.4,42.0,97,85,76,30.15,30.00,14,5,23,0.00
2012-6-7,62.1,54.8,47.9,58.0,52.3,46.0,97,91,79,30.06,29.99,16,4,19,0.00
2012-6-8,59.9,53.2,44.0,53.0,48.4,43.0,99,84,68,30.04,29.96,16,5,27,0.00
2012-6-9,60.1,53.3,44.4,52.0,47.8,41.0,95,82,70,30.04,29.91,13,5,24,0.00
2012-6-10,66.3,54.2,40.8,57.0,48.8,40.0,98,83,64,29.94,29.89,6,2,10,0.00
2012-6-11,63.4,54.3,44.4,56.0,50.2,44.0,100,86,74,29.99,29.89,8,3,12,0.00
2012-6-12,62.0,54.1,45.5,56.0,51.5,45.0,98,91,77,30.02,29.94,15,4,24,0.00
2012-6-13,59.5,53.9,49.1,55.0,51.1,48.0,99,90,79,29.94,29.78,12,4,17,0.00
2012-6-14,59.7,53.3,45.6,54.0,49.5,45.0,98,87,75,29.85,29.78,22,4,24,0.00
2012-6-15,61.6,55.0,46.0,54.0,50.3,44.0,96,84,73,29.84,29.79,9,4,19,0.00
2012-6-16,68.1,57.5,47.3,59.0,52.8,46.0,98,85,68,29.86,29.78,9,3,12,0.00
2012-6-17,67.2,57.6,49.7,58.0,54.2,48.0,99,89,71,29.92,29.77,20,6,24,0.00
2012-6-18,57.4,53.8,50.6,53.0,51.4,48.0,99,91,82,29.93,29.81,16,9,22,0.00
2012-6-19,63.8,54.5,45.4,56.0,50.7,44.0,97,87,74,29.95,29.84,13,4,16,0.00
2012-6-20,65.5,55.3,45.8,58.0,51.8,45.0,99,88,73,29.86,29.82,10,3,13,0.00
2012-6-21,56.2,53.3,50.1,53.0,51.4,50.0,98,93,88,29.98,29.82,19,10,22,0.00
2012-6-22,60.7,54.7,51.4,56.0,53.1,49.0,98,94,83,29.99,29.90,16,8,19,0.01
2012-6-23,59.4,55.3,49.6,55.0,52.4,49.0,98,90,76,29.96,29.88,13,5,15,0.01
2012-6-24,59.7,55.2,48.8,54.0,51.6,47.0,99,88,73,30.08,29.94,14,5,17,0.01
2012-6-25,63.0,55.9,46.7,57.0,52.9,46.0,99,90,71,30.10,30.04,13,4,16,0.01
2012-6-26,63.4,56.7,46.2,57.0,53.1,46.0,100,88,74,30.08,29.91,14,4,20,0.01
2012-6-27,63.6,55.6,46.3,57.0,52.5,46.0,99,89,77,29.96,29.89,13,4,14,0.01
2012-6-28,63.5,56.1,48.7,58.0,54.0,47.0,99,93,79,30.11,29.96,14,4,15,0.00
2012-6-29,62.4,56.9,53.1,59.0,56.1,53.0,100,97,87,30.13,30.05,11,4,14,0.01
2012-6-30,64.6,59.0,54.0,62.0,58.5,54.0,100,98,91,30.05,29.95,10,4,12,0.01
2012-7-1,61.3,58.0,54.5,60.0,57.5,53.0,100,98,92,29.98,29.88,10,5,14,0.00
2012-7-2,61.6,56.3,52.5,57.0,53.9,51.0,98,91,82,29.92,29.86,11,4,19,0.00
2012-7-3,61.5,55.9,49.1,56.0,52.3,48.0,97,88,77,29.93,29.83,8,3,14,0.00
2012-7-4,61.7,54.9,45.5,57.0,52.0,45.0,98,90,80,29.88,29.82,20,7,25,0.00
2012-7-5,60.7,54.9,50.4,55.0,52.3,50.0,98,91,81,30.01,29.88,20,6,23,0.00
2012-7-6,61.3,55.2,47.3,56.0,52.6,46.0,99,91,78,30.04,29.98,10,3,14,0.00
2012-7-7,60.8,53.5,46.1,57.0,52.1,46.0,100,95,85,30.01,29.97,11,4,13,0.00
2012-7-8,57.2,52.7,49.5,55.0,52.2,50.0,100,98,91,30.07,29.99,11,6,14,0.00
2012-7-9,60.2,54.1,50.2,56.0,52.9,50.0,100,96,85,30.07,29.97,10,4,14,0.00
2012-7-10,61.9,54.1,48.6,57.0,52.2,49.0,100,94,83,29.98,29.87,9,4,13,0.00
2012-7-11,62.0,54.3,49.8,57.0,52.6,50.0,100,94,82,29.91,29.84,12,5,13,0.00
2012-7-12,59.8,54.3,50.5,56.0,52.6,50.0,100,94,83,29.88,29.82,13,5,14,0.00
2012-7-13,55.0,52.3,50.4,54.0,51.4,50.0,99,96,92,29.95,29.85,15,6,17,0.00
2012-7-14,57.1,53.5,51.2,55.0,52.5,51.0,100,96,90,29.98,29.89,13,4,14,0.00
2012-7-15,62.5,55.2,51.5,58.0,53.7,51.0,100,95,84,29.94,29.86,14,6,19,0.00
2012-7-16,56.9,54.4,52.3,56.0,53.5,51.0,100,96,87,29.93,29.83,16,9,19,0.00
2012-7-17,61.4,56.2,49.6,58.0,54.9,49.0,100,95,83,30.01,29.91,14,6,17,0.03
2012-7-18,62.5,56.7,48.8,57.0,54.1,48.0,100,91,77,30.04,29.98,13,4,15,0.04
2012-7-19,64.1,58.0,52.3,60.0,56.6,52.0,100,95,83,30.07,29.98,10,4,14,0.00
2012-7-20,65.3,58.5,50.3,59.0,56.0,49.0,99,91,79,30.10,30.01,8,3,13,0.00
2012-7-21,66.3,57.4,47.8,61.0,54.5,48.0,100,90,76,30.01,29.91,9,3,12,0.00
2012-7-22,64.3,57.5,52.3,59.0,54.7,52.0,98,90,80,29.93,29.86,15,6,18,0.00
2012-7-23,67.1,59.4,53.3,58.0,55.2,51.0,94,86,70,29.94,29.88,17,6,21,0.00
2012-7-24,62.8,58.6,56.1,57.0,55.4,54.0,93,89,81,29.99,29.94,16,8,19,0.00
2012-7-25,63.0,58.1,54.6,57.0,55.2,53.0,96,90,78,30.02,29.96,17,7,19,0.00
2012-7-26,62.0,56.1,52.6,57.0,54.0,52.0,97,93,83,30.01,29.96,12,6,17,0.00
2012-7-27,62.9,55.8,51.8,58.0,54.4,51.0,99,95,84,30.03,29.98,13,6,19,0.00
2012-7-28,62.1,56.6,53.2,58.0,55.1,53.0,100,94,84,30.09,30.00,12,5,15,0.00
2012-7-29,62.8,56.2,51.8,58.0,54.4,52.0,100,94,81,30.05,29.98,10,4,14,0.00
2012-7-30,63.2,56.2,49.7,59.0,53.9,49.0,99,92,81,30.00,29.91,11,3,12,0.00
2012-7-31,64.1,55.4,46.7,58.0,53.1,46.0,100,92,79,30.00,29.93,12,5,14,0.00
2012-8-1,61.8,54.5,48.7,58.0,53.1,48.0,99,95,85,30.08,29.98,11,4,14,0.00
2012-8-2,58.7,53.9,50.1,57.0,52.9,50.0,99,96,90,30.02,29.91,10,5,15,0.00
2012-8-3,64.0,56.0,52.2,58.0,54.0,52.0,99,93,80,29.91,29.84,18,6,21,0.00
2012-8-4,59.7,55.6,50.4,58.0,54.9,50.0,100,98,91,29.98,29.86,12,5,16,0.00
2012-8-5,61.2,58.2,55.9,60.0,56.9,55.0,100,96,87,30.10,29.98,10,4,12,0.03
2012-8-6,64.6,58.9,55.3,58.0,56.0,54.0,96,90,77,30.15,30.06,11,4,14,0.03
2012-8-7,63.2,57.2,48.9,57.0,54.1,48.0,100,90,78,30.10,29.99,11,4,16,0.00
2012-8-8,65.1,54.9,46.2,58.0,52.2,46.0,100,91,75,30.03,29.94,9,3,12,0.01
2012-8-9,62.6,54.9,48.1,57.0,53.1,47.0,99,93,81,29.96,29.85,11,4,14,0.01
2012-8-10,57.6,52.2,46.9,55.0,51.4,47.0,100,97,89,29.88,29.79,11,4,12,0.00
2012-8-11,59.4,52.6,47.7,56.0,51.6,48.0,100,96,84,29.86,29.76,9,4,12,0.00
2012-8-12,58.4,52.3,49.2,55.0,51.6,49.0,100,97,86,29.91,29.83,9,4,11,0.00
2012-8-13,58.8,52.5,48.9,56.0,51.7,49.0,100,97,87,29.88,29.80,9,4,12,0.00
2012-8-14,64.3,56.9,50.5,60.0,55.5,51.0,100,95,82,29.85,29.80,13,6,17,0.00
2012-8-15,60.6,57.3,55.4,57.0,55.6,55.0,100,94,86,29.92,29.82,14,6,14,0.00
2012-8-16,61.1,56.8,53.9,58.0,55.3,53.0,99,95,85,29.98,29.92,10,3,12,0.00
2012-8-17,59.9,55.6,52.8,57.0,54.6,53.0,100,97,89,30.03,29.94,10,4,16,0.00
2012-8-18,59.9,55.5,51.9,56.0,54.1,51.0,99,95,88,30.01,29.93,10,4,15,0.00
2012-8-19,57.9,53.7,51.2,56.0,52.9,51.0,100,97,92,30.02,29.93,11,5,14,0.00
2012-8-20,60.3,53.0,49.2,57.0,52.3,49.0,100,97,85,29.97,29.89,11,5,14,0.00
2012-8-21,61.1,54.3,50.0,58.0,53.4,50.0,100,96,86,29.95,29.88,12,5,16,0.00
2012-8-22,56.7,53.6,50.7,55.0,53.2,51.0,100,98,93,29.96,29.89,12,5,14,0.00
2012-8-23,59.0,54.4,51.6,56.0,53.6,51.0,100,97,88,29.98,29.87,9,3,14,0.00
2012-8-24,63.0,54.7,50.6,57.0,53.0,50.0,100,94,81,29.93,29.86,16,5,23,0.00
2012-8-25,56.4,53.1,50.8,54.0,52.4,51.0,100,97,88,29.91,29.84,12,7,16,0.00
2012-8-26,61.5,56.3,49.2,56.0,53.3,48.0,97,89,77,30.02,29.86,14,6,17,0.00
2012-8-27,64.4,57.5,49.5,60.0,55.9,49.0,99,94,85,30.07,29.97,8,2,13,0.00
2012-8-28,65.6,56.4,47.7,58.0,53.0,47.0,100,88,73,30.06,29.95,9,2,12,0.01
2012-8-29,67.6,55.9,43.3,60.0,52.5,43.0,100,89,71,29.96,29.80,10,2,12,0.01
2012-8-30,58.6,53.3,46.5,56.0,52.3,46.0,100,96,90,29.86,29.78,13,6,18,0.01
2012-8-31,58.7,55.3,52.7,55.0,53.4,52.0,99,93,86,29.98,29.84,16,7,21,0.00
2012-9-1,61.8,54.3,51.3,58.0,52.9,51.0,99,95,84,30.05,29.97,10,3,15,0.00
2012-9-2,61.4,52.6,45.9,57.0,51.1,46.0,100,95,83,30.02,29.93,7,2,9,0.00
2012-9-3,62.4,52.7,44.2,58.0,51.1,44.0,100,95,83,30.00,29.92,9,3,13,0.00
2012-9-4,58.9,54.1,50.5,56.0,53.2,51.0,100,97,85,30.04,29.98,10,5,15,0.00
2012-9-5,58.4,54.4,51.6,56.0,53.5,51.0,100,96,88,30.02,29.95,9,3,12,0.00
2012-9-6,59.2,56.0,53.6,55.0,52.9,51.0,96,89,82,30.04,29.97,10,4,12,0.00
2012-9-7,63.2,57.0,50.3,55.0,52.4,48.0,94,85,73,30.12,30.03,10,3,13,0.00
2012-9-8,59.6,55.9,53.8,55.0,53.1,52.0,95,90,82,30.10,29.98,13,4,16,0.00
2012-9-9,63.4,55.4,43.9,57.0,52.3,43.0,100,90,77,30.03,29.91,12,4,21,0.00
2012-9-10,64.6,55.9,47.5,58.0,53.5,47.0,100,92,74,29.95,29.83,9,3,12,0.00
2012-9-11,69.1,56.6,47.3,61.0,53.7,47.0,99,90,74,29.96,29.83,19,5,21,0.00
2012-9-12,64.3,56.4,49.7,59.0,54.4,49.0,99,93,83,30.09,29.95,12,3,14,0.00
2012-9-13,60.9,54.0,50.0,56.0,53.0,50.0,100,96,83,30.13,30.05,9,2,11,0.00
2012-9-14,61.0,55.6,52.5,56.0,54.1,52.0,100,94,83,30.14,30.04,9,3,11,0.00
2012-9-15,58.4,53.0,50.4,55.0,52.0,50.0,100,96,87,30.14,30.02,9,3,12,0.00
2012-9-16,57.2,52.6,49.9,54.0,51.7,50.0,100,96,88,30.08,30.00,9,3,11,0.00
2012-9-17,58.8,54.5,51.7,54.0,51.9,50.0,95,90,83,30.09,30.02,9,5,13,0.00
2012-9-18,60.8,55.4,51.1,55.0,52.1,49.0,95,89,78,30.14,30.05,13,4,15,0.00
2012-9-19,61.2,56.0,52.6,55.0,53.2,51.0,96,90,80,30.14,30.06,12,5,17,0.00
2012-9-20,60.3,52.3,43.4,55.0,49.5,43.0,100,90,78,30.10,30.00,9,3,15,0.00
2012-9-21,62.9,53.7,44.1,57.0,50.5,44.0,100,89,71,30.02,29.91,10,2,12,0.01
2012-9-22,64.4,51.6,42.1,57.0,49.2,42.0,100,92,75,29.96,29.89,8,2,12,0.01
2012-9-23,61.3,50.9,43.1,56.0,49.9,43.0,100,96,82,30.00,29.90,11,2,13,0.01
2012-9-24,60.0,54.3,47.9,57.0,53.3,48.0,99,96,87,29.99,29.90,9,2,12,0.00
2012-9-25,61.1,52.5,45.3,57.0,51.8,45.0,100,97,86,29.95,29.88,12,3,13,0.00
2012-9-26,59.1,53.0,50.6,55.0,52.0,50.0,100,96,87,29.92,29.86,9,4,12,0.00
2012-9-27,61.6,52.7,49.1,57.0,52.0,49.0,100,97,85,29.96,29.87,8,3,10,0.00
2012-9-28,58.4,53.2,49.9,56.0,52.6,50.0,100,98,90,30.00,29.89,12,5,15,0.00
2012-9-29,58.4,52.8,50.1,55.0,51.9,50.0,100,97,86,30.06,29.98,8,3,11,0.00
2012-9-30,64.4,53.9,44.2,58.0,51.5,44.0,100,92,72,30.08,29.98,7,2,8,0.00
2012-10-1,75.9,58.4,45.7,61.0,51.0,45.0,99,79,47,30.01,29.89,6,2,9,0.00
2012-10-2,74.0,57.6,46.6,59.0,51.2,43.0,95,80,50,29.89,29.79,6,2,8,0.00
2012-10-3,80.4,59.5,47.5,60.0,54.4,47.0,97,85,39,30.00,29.80,18,6,26,0.00
2012-10-4,62.3,59.4,57.5,58.0,56.3,54.0,94,89,80,30.15,30.00,14,7,19,0.00
2012-10-5,64.4,58.8,51.2,59.0,56.4,50.0,98,91,83,30.16,30.08,7,2,10,0.00
2012-10-6,63.6,57.1,48.2,57.0,54.4,48.0,100,91,72,30.08,29.99,9,3,11,0.00
2012-10-7,61.9,55.9,49.3,57.0,54.4,49.0,99,95,82,30.03,29.97,9,3,13,0.00
2012-10-8,62.6,54.4,43.3,59.0,52.3,43.0,100,93,79,30.07,30.01,10,2,14,0.01
2012-10-9,64.2,57.0,50.1,59.0,54.6,50.0,100,92,78,30.04,29.96,9,2,12,0.01
2012-10-10,61.6,56.9,54.7,56.0,54.5,53.0,96,91,82,29.97,29.91,12,4,13,0.00
2012-10-11,55.9,54.6,52.9,54.0,52.8,52.0,98,93,89,29.98,29.89,11,5,15,0.01
2012-10-12,60.8,55.4,48.8,55.0,52.5,48.0,97,90,78,30.24,29.97,6,2,9,0.01
2012-10-13,67.8,56.0,45.0,60.0,53.0,45.0,100,90,65,30.33,30.19,9,2,12,0.01
2012-10-14,63.5,57.4,53.7,61.0,56.7,54.0,100,97,88,30.23,30.08,9,2,16,0.01
2012-10-15,68.4,59.1,48.3,62.0,57.2,48.0,100,94,73,30.10,29.97,12,2,16,0.01
2012-10-16,63.0,58.6,50.4,61.0,57.7,50.0,100,96,87,30.02,29.89,10,3,14,0.00
2012-10-17,67.1,54.0,43.9,60.0,50.7,44.0,100,89,70,29.93,29.83,6,2,9,0.01
2012-10-18,85.2,61.9,43.9,63.0,52.6,42.0,94,76,31,30.02,29.87,13,4,21,0.01
2012-10-19,64.3,60.4,54.7,63.0,59.3,54.0,99,96,93,30.06,29.94,10,4,16,0.00
2012-10-20,61.6,55.4,50.8,58.0,53.2,48.0,100,92,81,29.94,29.81,16,4,22,0.00
2012-10-21,59.3,53.1,44.7,54.0,48.2,42.0,97,84,67,29.96,29.83,13,4,17,0.05
2012-10-22,59.3,54.7,49.3,54.0,51.7,48.0,99,90,73,29.94,29.69,15,7,28,0.90
2012-10-23,60.0,53.0,44.5,53.0,48.9,44.0,99,87,63,30.06,29.93,9,3,13,0.92
2012-10-24,60.2,55.8,49.5,55.0,52.1,48.0,99,88,71,30.21,30.02,10,3,13,0.03
2012-10-25,64.4,54.9,45.1,56.0,51.9,44.0,98,90,70,30.27,30.19,12,3,13,0.12
2012-10-26,64.5,52.9,41.5,56.0,49.5,41.0,100,89,58,30.26,30.11,8,2,13,0.01
2012-10-27,68.2,55.6,47.9,61.0,53.6,48.0,100,93,74,30.11,29.96,6,1,11,0.01
2012-10-28,60.7,55.1,48.3,58.0,54.4,48.0,100,97,87,30.04,29.98,9,2,11,0.01
2012-10-29,63.6,54.2,45.9,61.0,53.7,46.0,100,98,84,30.13,30.04,7,2,13,0.01
2012-10-30,59.0,54.5,49.3,58.0,54.3,49.0,100,99,96,30.09,29.98,6,1,8,0.01
2012-10-31,60.6,57.9,56.1,58.0,57.0,56.0,100,97,87,30.01,29.96,14,3,22,0.62
2012-11-1,62.7,57.4,48.7,60.0,56.4,49.0,100,96,85,30.07,30.00,9,2,13,0.62
2012-11-2,62.6,52.1,44.3,55.0,49.8,44.0,100,93,63,30.11,30.05,6,1,10,0.01
2012-11-3,67.9,55.0,46.4,59.0,52.1,46.0,100,91,63,30.16,30.07,9,2,11,0.01
2012-11-4,69.1,55.6,47.9,62.0,53.6,48.0,100,93,74,30.21,30.13,6,1,10,0.01
2012-11-5,83.0,60.9,48.3,64.0,54.0,48.0,100,82,38,30.14,30.02,8,1,15,0.01
2012-11-6,75.0,58.3,48.2,62.0,54.5,48.0,100,88,60,30.07,29.99,8,1,12,0.01
2012-11-7,57.1,54.8,53.2,56.0,54.0,51.0,100,97,89,30.06,29.95,12,4,15,0.01
2012-11-8,55.7,50.8,39.6,51.0,46.1,39.0,99,84,70,29.97,29.89,13,4,18,0.13
2012-11-9,54.1,45.5,35.5,48.0,42.2,35.0,100,89,69,30.01,29.91,16,3,16,0.32
2012-11-10,55.6,45.5,36.5,47.0,41.3,36.0,100,87,66,30.27,30.01,11,2,15,0.01
2012-11-11,55.5,42.8,33.2,48.0,39.9,33.0,100,90,67,30.41,30.27,7,2,9,0.01
2012-11-12,60.1,46.3,37.1,48.0,40.9,36.0,99,83,51,30.41,30.27,8,2,10,0.01
2012-11-13,65.2,49.2,38.0,52.0,43.6,37.0,98,83,41,30.29,30.09,9,2,13,0.00
2012-11-14,66.2,53.3,43.7,55.0,48.4,42.0,98,84,64,30.14,30.01,8,2,12,0.00
2012-11-15,66.3,57.5,48.0,55.0,51.0,43.0,97,80,45,30.03,29.96,11,3,17,0.00
2012-11-16,59.7,57.3,55.0,57.0,54.6,53.0,99,90,81,30.00,29.85,7,2,14,1.37
2012-11-17,59.3,56.6,48.6,58.0,55.6,48.0,100,96,85,30.02,29.79,16,6,22,0.70
2012-11-18,58.6,51.1,40.4,53.0,48.5,40.0,100,91,75,30.18,30.03,11,2,12,0.01
2012-11-19,61.9,57.9,54.2,57.0,54.1,51.0,95,87,78,30.23,30.14,12,5,20,0.01
2012-11-20,60.0,58.8,57.6,59.0,58.1,57.0,98,97,95,30.14,29.99,16,8,28,0.69
2012-11-21,61.2,55.8,41.8,58.0,52.9,41.0,98,90,73,30.23,30.03,8,3,12,0.69
2012-11-22,60.8,46.5,37.9,52.0,44.1,38.0,100,92,67,30.30,30.21,6,1,11,0.01
2012-11-23,64.7,47.5,37.7,55.0,45.1,38.0,100,92,61,30.30,30.18,7,1,12,0.02
2012-11-24,62.9,50.8,37.9,55.0,48.8,38.0,100,94,72,30.21,30.06,7,1,12,0.01
2012-11-25,59.4,53.0,43.9,57.0,52.0,44.0,100,96,84,30.06,29.94,8,2,12,0.00
2012-11-26,56.7,48.8,39.4,55.0,48.4,39.0,100,98,91,30.08,29.98,6,2,9,0.01
2012-11-27,59.8,55.2,46.1,54.0,51.6,46.0,100,88,76,30.12,29.97,11,2,18,0.00
2012-11-28,60.2,57.9,55.8,58.0,54.6,51.0,96,89,75,30.02,29.79,27,6,30,1.18
2012-11-29,61.1,59.7,58.2,60.0,57.5,55.0,99,92,82,30.02,29.82,28,13,37,0.58
2012-11-30,59.9,58.9,57.2,60.0,58.3,57.0,100,98,92,29.99,29.77,29,14,41,0.77
2012-12-1,61.0,59.2,57.8,61.0,58.3,57.0,99,96,91,30.03,29.86,25,8,35,0.24
2012-12-2,61.5,54.5,43.3,61.0,52.8,43.0,100,94,73,30.12,29.72,33,9,45,1.07
2012-12-3,57.0,48.8,38.3,51.0,46.9,38.0,100,93,78,30.23,30.12,9,2,10,0.01
2012-12-4,58.4,54.5,49.8,57.0,52.9,49.0,100,94,80,30.23,30.13,15,3,19,0.28
2012-12-5,61.5,58.6,55.3,61.0,58.5,55.0,100,99,96,30.16,30.10,12,2,20,0.04
2012-12-6,57.6,51.1,40.2,55.0,48.8,40.0,100,92,80,30.17,30.09,8,2,12,0.01
2012-12-7,56.2,43.9,35.5,51.0,42.5,36.0,100,95,74,30.19,30.08,5,1,6,0.01
2012-12-8,57.5,43.9,35.3,52.0,42.6,35.0,100,95,73,30.17,30.06,4,1,8,0.02
2012-12-9,61.1,47.1,38.2,53.0,44.4,38.0,100,91,63,30.23,30.12,6,1,8,0.01
2012-12-10,63.5,47.9,39.4,53.0,45.3,39.0,100,91,65,30.27,30.12,5,1,8,0.01
2012-12-11,53.0,48.3,40.5,52.0,47.2,41.0,100,96,83,30.12,29.86,11,3,19,0.12
2012-12-12,53.2,48.1,35.7,49.0,44.0,35.0,99,86,72,29.92,29.85,12,3,20,0.06
2012-12-13,52.6,39.7,32.2,44.0,37.2,32.0,100,91,62,29.98,29.87,7,1,11,0.01
2012-12-14,51.1,42.0,33.3,45.0,39.8,33.0,100,93,68,30.07,29.85,6,1,9,0.01
2012-12-15,47.7,42.0,32.9,46.0,41.1,32.0,100,96,90,30.10,30.01,8,2,14,0.07
2012-12-16,55.3,50.6,45.1,55.0,49.0,43.0,98,94,90,30.12,30.02,17,5,25,0.03
2012-12-17,56.4,52.9,43.6,56.0,50.3,38.0,99,91,80,30.07,29.99,21,6,28,0.04
2012-12-18,51.3,43.3,35.2,42.0,35.6,30.0,92,75,60,30.23,30.03,13,3,20,0.04
2012-12-19,53.0,38.5,28.5,41.0,33.0,27.0,95,82,57,30.35,30.22,6,2,9,0.00
2012-12-20,55.8,50.5,38.1,51.0,44.8,35.0,94,81,70,30.22,29.96,19,8,30,0.19
2012-12-21,55.7,53.2,51.5,54.0,51.8,50.0,99,95,88,29.96,29.84,21,10,34,1.80
2012-12-22,55.9,53.0,49.6,54.0,48.1,45.0,95,84,68,30.06,29.83,20,9,34,0.09
2012-12-23,56.4,52.2,43.2,56.0,51.1,43.0,100,96,85,30.06,29.86,37,8,45,0.84
2012-12-24,53.9,45.1,39.2,50.0,42.9,39.0,100,92,71,30.24,30.05,5,1,6,0.01
2012-12-25,48.8,44.8,39.5,48.0,43.8,39.0,100,96,89,30.17,29.80,8,2,17,1.27
2012-12-26,53.4,49.8,45.4,49.0,46.0,42.0,98,87,79,30.14,29.89,14,5,21,0.19
2012-12-27,54.0,47.2,38.5,47.0,42.3,38.0,99,83,68,30.19,30.13,8,2,12,0.19
2012-12-28,48.5,42.7,35.4,44.0,40.6,35.0,100,92,77,30.20,30.05,6,1,11,0.25
2012-12-29,55.3,45.0,36.1,46.0,41.4,36.0,99,88,57,30.11,30.04,7,2,12,0.36
2012-12-30,53.1,40.0,31.6,46.0,37.6,31.0,100,92,69,30.22,30.09,5,1,9,0.01
2012-12-31,51.7,40.5,30.5,46.0,38.0,30.0,100,91,66,30.33,30.22,7,1,11,0.01
2013-1-1,56.0,42.3,33.2,41.0,36.5,31.0,100,83,43,30.31,30.22,8,2,20,0.01